Find Starlink 30348

NORAD ID: 57712 Int'l Des: 2023-129 Owner: SPXS Country: US Constellation: starlink operational
LEOCIRCULAR

实时位置

正在加载3D地球...

关于 Starlink 30348

正在加载描述...

即将过境

Passes for default location (London). Set your location on the main map for personalized predictions.

高度历史

Loading altitude history...

两行轨道根数

1 57712U 23129Q 26127.42090003 .00013997 00000-0 51693-3 0 9991
2 57712 43.0021 146.3166 0001450 279.9754 80.0934 15.27598091149661
Epoch: May 7, 2026 • Age: 11 hours

当前状态

高度 487.0 km
速度 7.63 km/s
星下点 43.03°N, 40.56°E
发射日期 Aug 27, 2023
运行时间 2.6 years
类型 internet

技术详情

分类 Payload
质量 730.00 kg
干质量 700.00 kg
总质量 730.00 kg
长度 0.30 m
直径 4.10 m
跨度 29.00 m
形状 Box + pan
制造商 SPXS
平台类型 Starlink V2M
阶段状态 In Orbit
所有者/国家 SPXS/US

Most Searched